COSMOS 2251 DEB, 35442

Orbit data source: Space-Track

COSMOS 2251 DEB, 35442 is space debris in LEO originally from a launch on Wed, 16 Jun 1993 UTC launched from the Plesetsk Missile And Space Complex (PKMTR). The debris from Iridium 33, an American commercial communications satellite, has been tracked extensively since its accidental collision with the defunct Russian satellite Cosmos 2251 in 2009. This event, occurring at high speed in low Earth orbit (LEO), generated thousands of pieces of space debris, significantly increasing the risk of further collisions. The Iridium 33 debris cloud has impacted space traffic management and orbital debris mitigation strategies, making it a subject of ongoing study in space situational awareness.

Loading next visibility...
Identifier
35442, 1993-036AKL
Orbit
LEO
Country
Flag of CISCIS
Related business
Manufacturer
Unknown
Mission
Spacecraft
Bus & Motor
Unknown
Mass
Unknown
Launch date (UTC)
1993-06-16 (33 years ago)
Launch vehicle
Unknown
Launch site
Plesetsk Missile And Space Complex (PKMTR)
Object type
Payload
Rocket body
Debris
Shape & HBR
Unknown shape, 0.1 m
Radar Cross Section
Small (<0.1 m²)

Expand to show TLE details & history
Last TLE update: 22 hours ago

TLE from 22 hours ago
0 COSMOS 2251 DEB
1 35442U 93036AKL 26072.28006851  .00019079  00000-0  20318-2 0  9998
2 35442  74.0240 278.8282 0003411 246.0939 113.9885 14.88875982886980
Epoch: 2026-03-13T06:43Z
TLE epoch observation values (Epoch: 2026-03-13T06:43:17.919Z)
Latitude
0.00001°
Longitude
7.08567°
Altitude
605.089 km
Speed
7.557 km/s
True Right ascension
18h 35m 18s
True Declination
0° 00' 00"
Sunlit
Object was in daylight at epoch
Visualization orbit readout
Latitude
Unknown
Longitude
Unknown
Altitude
Unknown
Speed
Unknown
Apparent Right ascension
Unknown
Apparent Declination
Unknown
Sunlit
N/A
Visualization observer readout
Local Sidereal Time
09:36:08
Azimuth
Unknown
Elevation
Unknown
Doppler factor
Unknown
Orbital elements
Apogee altitude
601.393 km
Perigee altitude
596.633 km
Semi-major axis
6,977.15 km
Eccentricity
0.00034
Inclination
74.024°
RAAN
278.8282°
Arg. of periapsis
246.0939°
True anomaly
114.0242°
Mean anomaly
113.9885°
Eccentric anomaly
114.00635°
Mean motion
3.72414 °/min
Orbital period
96.67 mins
BSTAR
0.0020318

Documentation

Showing up to 5 results
|